LANDSAT 8

Last updated on Sun Jun 21 2026 00:02:51 GMT+0000 (Coordinated Universal Time)

1 39084U 13008A 26171.45824818 .00000230 00000+0 61084-4 0 9990 2 39084 98.2301 241.5547 0001358 93.7192 266.4162 14.57096364698370
UTC large
Height (km)
Speed (km/s)
/
Latitude / Longitude
Inclination (degrees)
Orbital Period (minutes)
Azimuth
Elevation
Range (km)
Doppler Factor

Next 0 passes for location: London (51.5072 / 0.1276)

No passes found over London.
LANDSAT 8